Regional Weather Roundup
Issued by NWS

Home | Current Version | Previous Version | Text Only | Print | Product List | Glossary On
Versions: 1 2 3 4 5 6 7 8 9 10 11 12 13 14 15 16 17 18 19 20 21 22 23 24 25 26 27 28 29 30 31 32 33 34 35 36 37 38 39 40 41 42 43 44 45 46 47 48 49 50
000
ASUS44 KLUB 242010
RWRTX
WEST TEXAS WEATHER ROUNDUP
NATIONAL WEATHER SERVICE LUBBOCK TX
200 PM CST MON NOV 24 2014

NOTE: "FAIR" INDICATES FEW OR NO CLOUDS BELOW 12,000 FEET WITH NO
SIGNIFICANT WEATHER AND/OR OBSTRUCTIONS TO VISIBILITY.

TXZ004-006>008-010-012-014-016-OKZ002-242100-
TEXAS PANHANDLE/OKLAHOMA PANHANDLE

CITY           SKY/WX    TMP DP  RH WIND       PRES   REMARKS
AMARILLO       PTSUNNY   51  12  21 NW6       30.01F
BORGER         PTSUNNY   52   3  13 VRB5      30.00F
CANADIAN       SUNNY     54   6  14 N10G17    29.99S
DALHART        MOSUNNY   50  -2  11 NW7       30.00F
DUMAS            N/A     52   6  15 SW5       30.00S
GUYMON         MOSUNNY   51   4  14 W8        29.97S
HEREFORD       PTSUNNY   49  14  25 MISG      30.02F
PAMPA          MOSUNNY   49   9  20 W6        30.00F
PERRYTON       MOSUNNY   52   4  14 NW12G24   29.98S
$$

TXZ026-029-035-045-048-242100-
SOUTHERN PANHANDLE/SOUTH PLAINS/ROLLING PLAINS

CITY           SKY/WX    TMP DP  RH WIND       PRES   REMARKS
CHILDRESS      MOSUNNY   58  20  22 W9G21     30.03F
SEMINOLE       SUNNY     54  11  18 W8        30.04F
LUBBOCK        MOSUNNY   53  20  27 NW10      30.02F
PLAINVIEW      MOSUNNY   50  19  29 NW5       30.00F
SNYDER         SUNNY     53  27  36 SW9       30.05F
$$

TXZ052-054-060>062-072-078-127-140-154-169-242100-
PERMIAN BASIN/CONCHO VALLEY/BIG COUNTRY/EDWARDS PLATEAU

CITY           SKY/WX    TMP DP  RH WIND       PRES   REMARKS
ABILENE        SUNNY     58  20  22 CALM      30.06F
BIG SPRING     SUNNY     54  28  37 SW7       30.07F
BRADY          SUNNY     55  25  30 CALM      30.08F
BROWNWOOD      MOSUNNY   57  27  30 S7        30.08F
JUNCTION       PTSUNNY   58  21  24 VRB3      30.07F
MIDLAND        SUNNY     54  26  34 W7        30.06F
ODESSA         SUNNY     54  23  30 NW8       30.06F
SAN ANGELO     MOSUNNY   58  21  24 SE5       30.06F
SONORA         FAIR      57  18  21 VRB6      30.11F
SWEETWATER     SUNNY     56  23  27 W12       30.08F
WINK           SUNNY     58   3  11 NW9       30.04F
$$

TXZ055-058-074-075-080-082-242100-
FAR WEST/SOUTHWEST MOUNTAINS/TRANS PECOS

CITY           SKY/WX    TMP DP  RH WIND       PRES   REMARKS
ALPINE         MOSUNNY   52   6  15 CALM      30.13F
DRYDEN           N/A     63  13  14 CALM      30.03F
EL PASO        SUNNY     56  -3   9 W13       30.09F
FORT STOCKTON  MOSUNNY   55  10  16 NW8       30.07F
GUADALUPE PASS SUNNY     51  -1  11 W36G43    30.04F
MARFA          SUNNY     52   7  16 W15       30.10F
PECOS          SUNNY     57  10  15 NW8       30.07F
PRESIDIO       FAIR      61   5  10 NW13G23   30.07F
$$

TXZ014-016-019-021>030-083-242100
TEXAS TECH WEST TEXAS MESONET/TEXAS PANHANDLE/NORTHERN SOUTH PLAINS

CITY           SKY/WX    TMP DP  RH WIND       PRES   REMARKS
ABERNATHY 5ENE   N/A     51  19  28 W7        30.02F
AMARILLO 9NNE    N/A     50  13  23 W7        30.01S
AMARILLO 7SSE    N/A     50  11  21 W7        30.02S
AMHERST 1NE      N/A     50   4  15 NW7       30.00F
BOOTLEG 11WNW    N/A     45   6  20 NE3       30.02F
CANADIAN 6E      N/A     54  10  17 W14       29.97F
CAPROCK CYN SP   N/A     52  23  33 W8        30.03S
CHILDRESS 2NNE   N/A     57  20  23 W6        30.02F
CLARENDON 2WSW   N/A     53  17  24 NW3       30.01F
CLAUDE 12SW      N/A     49  16  27 CALM      30.01F
DIMMITT 2NE      N/A     47  17  30 N7        30.01F
FLOYDADA 2NNE    N/A     52  18  25 W8        30.02F
FRIONA 2NE       N/A     46   2  16 N9        30.02S
GOODLETT 3W      N/A     59  17  19 SW9       30.02F
HART 3N          N/A     50  18  28 N5        30.01F
HEREFORD 2NW     N/A     48   9  20 W1        30.01F
MCLEAN 1E        N/A     53  11  18 W10       29.99S
MEMPHIS 1NE      N/A     56  23  27 SW9       30.02F
MULESHOE 2SSW    N/A     51   1  12 NW7       30.00F
OLTON 6S         N/A     51  10  19 W8        30.00F
PALO DURO SP     N/A     49  14  24 CALM      30.02F
PAMPA 2E         N/A     50   9  19 W10       30.00F
PLAINVIEW 1S     N/A     50  20  30 W2        30.01F
SILVERTON 7ESE   N/A     50  23  35 W7        30.02F
TULIA 2ENE       N/A     47  23  38 NW3       30.01F
UMBARGER 3NNE    N/A     47  14  25 N5        30.01F
$$

TXZ033>036-039>041-045>048-242100
TEXAS TECH WEST TEXAS MESONET/SOUTH PLAINS

CITY           SKY/WX    TMP DP  RH WIND       PRES   REMARKS
AIKEN 3WSW       N/A     50  21  31 W6        30.03F
ANTON 6SSW       N/A     52  16  24 W9        30.01F
BROWNFIELD 2S    N/A     52  16  23 NW6       30.01F
DENVR CTY 7WNW   N/A     51   4  15 NW10      30.02F
GAIL 2ESE        N/A     55  24  30 SW2       30.03F
LAMESA 2SE       N/A     54  22  28 W7        30.04F
LEVELLAND 4S     N/A     52  13  20 NW6       30.01F
LUBBOCK 3WNW     N/A     53  18  25 NW10      30.03F
MORTON 1ENE      N/A     52   7  16 W9        30.00F
ODONNELL 1N      N/A     53  21  29 N5        30.03F
PLAINS 3N        N/A     52   7  16 NW12      30.02S
RALLS 1SE        N/A     53  19  26 W7        30.03F
REESE CENTER     N/A     52  15  23 W7        30.01F
SEAGRAVES 1SW    N/A     53  13  20 NW7       30.02F
SEMINOLE 2NNE    N/A     54   8  15 W7        30.03F
SLATON 2NE       N/A     52  19  27 W5        30.03F
SNYDER 3E        N/A     56  26  32 SW6       30.04F
SUNDOWN 8SW      N/A     53  11  18 NW6       30.01S
TAHOKA 3NNE      N/A     53  18  25 W5        30.02F
WOLFFORTH 6SSW   N/A     53  18  25 W5        30.02F
$$

TXZ031-032-036>038-042>044-242100-
TEXAS TECH WEST TEXAS MESONET/ROLLING PLAINS

CITY           SKY/WX    TMP DP  RH WIND       PRES   REMARKS
ASPERMONT 3NE    N/A     59  24  26 S5        30.05S
FLUVANNA 3WNW    N/A     54  25  32 S6        30.03F
GRAHAM 5SSW      N/A     53  19  26 W5        30.03F
GUTHRIE 10WSW    N/A     59  21  22 SW9       30.02F
HASKELL 1NW      N/A     57  24  28 SW6       30.05F
JAYTON 1SSE      N/A     58  22  25 SW10      30.04F
KNOX CITY 3NW    N/A     59  22  24 S2        30.05F
LK A HENRY 1NW   N/A     56  26  30 S7        30.03F
NORTHFIELD 1S    N/A     57  22  26 W7        30.02F
ODELL 4ENE       N/A     59  20  22 W13       30.03F
PADUCAH 10SW     N/A     55  22  28 SE7       30.02F
POST 1NE         N/A     56  20  24 NW8       30.03F
RRING SPRGS 3N   N/A     55  20  25 NW6       30.02F
SEYMOUR 3NW      N/A     58  24  27 SW3       30.05S
SPUR 1W          N/A     57  19  22 SW5       30.02F
WEINERT 2NNE     N/A     57  23  26 W5        30.06S
WHITE RVR 6NE    N/A     55  15  20 W9        30.02F
$$

TXZ052-054-060>062-072-078-127-140-154-169-242100-
TEXAS TECH WEST TEXAS MESONET/PERMIAN BASIN/
CONCHO VALLEY/BIG COUNTRY/EDWARDS PLATEAU

CITY           SKY/WX    TMP DP  RH WIND       PRES   REMARKS
COYANOSA 2N      N/A     57   6  13 W14       30.07F
JUNCTION 1SSW    N/A     58  21  23 N6        30.08F
MERTZON 3NNE     N/A     59  24  26 W12       30.07F
SAN ANGELO 7NW   N/A     58  24  27 S9        30.06F
STRLNG CT 4WSW   N/A     55  26  33 S10       30.07F
ST LAWRNCE 5SW   N/A     54  21  27 W8        30.06F
SWEETWATR 11SW   N/A     56  22  26 W6        30.06F
WALL 1E          N/A     57  20  23 S7        30.08F
$$

TXZ055-058-074-075-080-082-242100-
TEXAS TECH WEST TEXAS MESONET/FAR WEST/SOUTHWEST MOUNTAINS/TRANS PECOS

CITY           SKY/WX    TMP DP  RH WIND       PRES   REMARKS
PRSMN GAP BBNP   N/A     62   4  10 W10       30.04F
GUADLPE MTN NP   N/A     47  -4  11 W15       30.04F
$$



USA.gov is the U.S. government's official web portal to all federal, state and local government web resources and services.